Location: Carnoy
(49.9849°N, 2.7558°E)
Time: 19:52:57
(UTC+00:00)

Envisat - Pass Details

Date: 24 January 2020
Orbit: 764 x 766 km, 98.1° (Epoch: 16 February)

Event Time Altitude Azimuth Distance (km) Brightness Sun altitude
Rises 18:05:50 0° 184° (S) 3,221 6.4 -15.3°
Reaches altitude 10° 18:08:14 10° 191° (S) 2,299 5.8 -15.7°
Maximum altitude 18:13:03 43° 262° (W) 1,073 4.3 -16.5°
Drops below altitude 10° 18:17:54 10° 334° (NNW) 2,315 5.7 -17.3°
Sets 18:20:20 0° 341° (NNW) 3,246 6.4 -17.6°
